Wind_Speed
8 7 7 7 7 7 7 8 7 7 7 7 6 6 6 6 6 6 6 6 6 6 7 7 7 7 7 7 8 8 8 8 8 8 8 9 9 10 10 11 12 12 12
8 6 6 6 7 7 6 7 7 6 7 6 6 6 6 6 7 7 7 7 7 7 7 8 8 8 8 8 8 9 9 10 10 10 10 10 11 11 12 12 12 13 13
8 7 7 6 6 7 6 6 7 6 6 6 6 7 7 7 7 7 6 7 8 8 7 8 8 9 9 10 10 11 11 11 11 11 11 11 12 12 13 13 13 14 15
9 7 7 7 6 6 6 6 7 6 7 8 8 7 8 8 8 8 8 8 9 9 9 9 10 11 11 12 12 13 13 13 13 13 13 13 14 14 14 14 15 16 16
8 7 7 7 6 5 6 6 6 7 8 8 8 8 9 9 9 10 10 10 10 10 11 11 12 13 14 14 14 14 15 15 15 16 16 16 16 16 16 16 17 18 18
8 7 7 8 7 6 6 6 6 7 7 7 8 9 9 10 10 11 11 11 11 12 12 13 14 14 15 16 16 16 17 17 18 18 18 19 19 18 19 18 19 19 19
8 8 7 8 7 6 6 6 7 8 8 8 9 9 10 11 12 12 12 12 12 13 13 14 14 15 16 16 17 18 18 19 19 19 20 20 20 20 20 20 20 21 21
9 9 8 8 7 7 6 6 7 7 8 9 10 10 11 12 12 13 13 13 13 14 14 14 15 16 17 18 18 18 19 20 20 20 21 21 21 20 20 21 21 21 22
10 10 9 8 8 8 8 7 8 8 8 9 10 11 13 13 14 14 14 14 15 16 16 16 17 18 19 19 20 20 20 21 21 21 22 22 22 22 22 22 21 22 22
13 12 11 9 9 9 9 8 9 9 9 10 12 13 14 15 15 15 15 16 17 17 17 18 18 18 19 20 21 22 22 22 22 23 23 23 23 23 23 22 22 23 23
13 13 12 11 10 10 10 9 10 10 11 12 13 14 15 16 16 17 17 18 18 19 19 19 20 20 20 21 22 22 23 23 23 24 24 24 24 24 23 23 23 24 24
13 12 12 11 11 11 11 11 11 13 13 14 15 16 16 16 17 17 18 18 19 19 20 20 21 21 22 22 23 23 23 23 24 24 24 25 24 24 24 25 25 25 25
12 12 12 12 12 12 12 13 13 14 14 15 16 17 17 17 18 19 19 20 20 20 20 21 22 22 23 24 24 24 24 24 24 24 25 25 24 24 25 26 26 25 25
13 13 13 12 12 13 13 14 14 15 15 16 17 18 18 18 19 20 20 21 22 22 22 22 23 24 24 25 25 25 25 25 25 25 26 25 24 25 26 26 26 25 25
13 13 13 12 13 13 14 15 15 16 16 17 18 19 20 20 20 21 22 23 23 23 24 24 25 25 26 26 26 25 25 25 26 26 26 26 26 26 26 26 26 25 24
13 14 14 14 15 15 15 16 17 17 18 18 19 20 20 21 21 22 24 24 24 24 25 24 25 26 27 27 26 25 25 26 27 27 27 27 26 27 26 26 26 26 25
14 15 15 15 16 17 18 18 18 17 18 19 19 20 21 22 22 23 24 24 24 25 26 26 27 27 27 27 27 26 26 26 27 27 27 27 27 27 26 26 26 26 26
15 16 17 16 16 17 17 18 18 18 19 19 20 20 21 22 23 23 24 24 25 25 26 27 27 27 27 27 27 27 28 28 28 28 28 27 27 26 26 26 26 26 26
16 17 17 17 17 18 19 19 19 19 19 19 20 21 22 22 23 24 24 25 26 26 27 27 27 27 27 28 28 28 29 29 29 29 28 27 27 26 27 26 26 26 27
18 18 18 18 18 19 19 19 19 19 19 20 21 21 22 23 23 24 25 26 27 27 28 28 28 28 29 28 29 29 29 29 29 28 28 28 27 27 27 27 27 27 28
18 18 18 18 19 19 20 20 20 20 20 21 21 22 23 24 25 26 26 27 28 28 29 29 29 30 30 29 30 30 29 29 28 28 28 28 27 27 27 27 27 28 28
19 19 20 20 20 21 21 22 21 21 21 22 23 24 24 25 26 27 27 28 28 29 30 30 30 30 30 30 30 29 29 29 28 28 28 28 28 27 27 27 27 27 27
20 20 21 22 22 22 22 22 23 23 23 24 24 25 26 26 27 28 28 29 30 30 30 30 30 30 30 30 30 29 29 29 29 28 28 28 27 27 27 27 26 26 27
20 21 22 22 23 23 23 24 24 24 24 25 25 26 27 27 28 29 30 30 30 30 30 31 31 30 30 30 29 29 29 29 28 28 28 28 28 27 27 26 26 26 26
21 21 22 23 23 24 24 25 25 25 25 26 26 26 26 28 28 29 30 30 30 30 31 31 32 31 30 30 29 29 29 29 28 27 27 27 27 27 26 26 26 26 26
22 21 22 23 24 24 25 24 25 25 25 25 26 27 28 28 28 29 30 30 30 30 31 31 31 31 30 29 29 29 29 28 27 26 26 26 26 25 25 25 25 25 25
Wind_Direction
352 360 7 11 8 5 8 13 13 15 20 22 19 11 1 351 350 352 351 346 344 339 334 333 338 339 338 334 331 328 323 319 314 312 310 309 309 306 301 297 298 298 294
342 348 352 358 4 359 357 359 359 4 9 10 4 353 343 345 345 344 343 340 338 336 334 333 334 332 330 328 322 318 316 312 307 305 305 303 301 301 299 296 296 298 293
333 338 342 346 355 355 347 343 341 343 351 352 348 345 340 343 344 346 342 338 337 338 336 332 327 325 323 319 314 312 309 307 304 302 302 301 296 297 299 296 296 293 290
324 330 333 335 342 340 338 334 331 331 334 335 339 339 337 337 343 342 339 333 330 329 328 327 323 318 316 314 311 309 307 305 304 301 298 297 296 296 296 294 292 291 290
319 315 317 323 328 329 326 325 325 326 326 330 332 334 335 338 336 333 327 321 316 317 320 317 315 315 314 312 308 307 305 303 303 302 299 295 295 296 294 292 292 290 290
311 310 306 309 314 316 312 311 316 319 324 327 335 334 334 333 328 324 322 320 318 315 312 311 312 314 313 310 307 305 305 304 303 302 299 296 294 295 295 292 291 289 288
298 299 301 303 308 309 309 308 307 310 313 318 325 327 325 324 322 319 318 316 313 311 309 309 310 312 313 312 309 306 305 305 305 302 300 298 295 294 295 294 292 290 289
289 289 291 299 303 303 303 306 304 305 307 315 322 326 326 326 327 324 318 313 311 310 309 309 310 312 314 312 309 308 307 307 307 305 304 300 297 296 295 293 293 292 290
292 285 286 291 299 298 298 299 303 301 301 311 319 323 323 321 321 320 317 315 312 310 308 307 308 311 311 310 308 307 307 306 304 304 302 301 299 297 296 293 293 293 291
291 285 282 284 294 297 295 296 304 303 300 306 314 319 319 316 315 314 314 313 310 310 310 309 309 310 310 309 308 307 307 306 303 301 300 299 298 296 294 292 293 293 291
288 283 279 281 286 290 292 294 300 305 306 308 310 312 316 315 314 316 314 312 309 308 308 308 308 309 309 309 308 307 305 304 301 299 298 296 295 293 292 291 293 292 291
286 283 283 278 280 285 287 289 300 305 307 307 306 310 311 315 315 314 314 312 311 308 308 308 307 308 308 307 306 306 305 304 302 299 298 297 295 292 292 294 293 292 291
288 288 288 283 280 279 284 289 296 301 304 304 305 307 309 310 313 314 314 315 314 312 312 311 308 307 307 305 305 305 304 303 303 302 300 298 295 294 295 296 293 292 291
287 291 291 285 281 281 285 292 294 297 302 305 308 311 310 310 312 313 314 314 314 312 311 310 308 307 308 307 304 304 303 302 303 302 300 301 300 298 297 295 294 292 291
288 291 291 284 284 286 287 290 294 298 302 304 308 310 312 309 311 312 312 311 310 309 309 308 309 308 308 307 305 305 304 301 300 300 300 300 299 300 299 296 294 292 291
286 288 286 288 288 288 287 287 290 296 300 305 308 309 310 310 310 311 311 312 311 311 311 309 309 308 309 308 307 305 303 301 300 299 298 298 298 299 298 296 295 293 291
280 287 289 288 290 289 289 289 288 296 302 306 309 309 310 310 310 311 312 312 311 311 312 311 309 308 308 309 307 305 305 303 301 300 299 299 298 297 295 294 295 294 292
284 288 292 290 289 292 295 296 296 298 301 304 307 310 311 311 311 312 313 313 312 312 312 312 311 310 309 309 307 305 306 304 301 300 299 299 297 296 295 294 295 295 294
283 286 287 288 287 290 293 293 293 294 298 301 304 308 311 312 313 314 314 313 313 313 313 312 312 310 309 309 307 307 306 305 302 299 299 299 297 296 295 294 294 294 292
281 283 285 285 287 289 290 290 290 292 296 300 303 306 309 311 313 314 314 314 313 312 312 310 310 310 309 309 307 307 306 305 303 302 300 300 299 298 296 295 294 292 291
279 281 285 285 285 286 287 288 289 292 297 300 302 304 306 308 310 312 313 313 312 312 311 310 309 308 308 307 307 306 305 304 303 302 302 302 302 299 298 296 294 293 291
278 281 284 285 286 286 287 284 286 292 296 298 301 303 304 306 307 309 310 310 311 311 311 310 309 308 307 307 307 306 305 304 304 303 302 302 302 301 300 298 295 293 293
278 279 282 285 287 287 287 285 287 292 295 298 300 301 303 305 306 307 308 310 311 311 312 311 310 310 309 309 308 307 307 306 305 305 303 302 301 301 300 299 297 295 295
277 278 280 283 286 288 287 286 289 292 295 296 297 300 302 304 305 307 308 309 310 312 312 312 311 310 310 310 310 309 308 308 307 306 305 303 301 302 301 299 297 296 295
275 276 278 281 284 287 287 286 289 293 295 295 296 298 301 302 304 306 308 308 310 311 312 313 313 311 310 309 309 309 309 308 307 306 305 303 301 302 302 302 300 298 296
274 276 278 279 282 285 289 291 293 293 294 295 298 300 303 304 306 308 308 309 310 312 313 313 313 312 311 310 310 310 310 311 309 307 305 304 304 303 303 303 302 301 299
Height
5883 5881 5880 5879 5878 5877 5875 5874 5873 5871 5870 5869 5868 5867 5866 5864 5863 5862 5862 5861 5860 5859 5858 5857 5856 5855 5854 5853 5852 5850 5849 5848 5847 5846 5845 5844 5843 5842 5841 5840 5839 5838 5837
5883 5881 5880 5878 5877 5876 5875 5874 5873 5872 5870 5869 5868 5866 5865 5863 5863 5862 5861 5860 5859 5858 5857 5856 5855 5854 5853 5851 5850 5849 5848 5846 5845 5844 5843 5843 5842 5840 5839 5838 5836 5835 5834
5882 5881 5879 5878 5877 5876 5875 5874 5873 5872 5870 5869 5867 5866 5865 5863 5862 5861 5859 5859 5858 5857 5856 5855 5854 5853 5851 5850 5849 5847 5846 5844 5843 5842 5841 5840 5839 5838 5837 5835 5833 5832 5831
5881 5880 5879 5877 5876 5875 5874 5873 5872 5871 5869 5868 5866 5865 5864 5863 5862 5860 5859 5858 5857 5855 5854 5853 5852 5851 5849 5848 5846 5845 5843 5841 5840 5839 5838 5837 5836 5834 5833 5832 5830 5829 5827
5880 5879 5878 5876 5875 5874 5873 5872 5871 5870 5869 5867 5866 5864 5863 5862 5861 5859 5858 5857 5855 5854 5852 5851 5850 5848 5847 5845 5843 5842 5840 5838 5836 5835 5834 5833 5831 5830 5829 5828 5827 5825 5823
5878 5877 5876 5875 5874 5872 5871 5871 5869 5869 5867 5866 5865 5864 5862 5861 5859 5858 5856 5855 5853 5852 5850 5848 5847 5845 5844 5842 5840 5838 5836 5834 5833 5831 5829 5828 5827 5825 5824 5823 5822 5820 5819
5876 5875 5875 5874 5872 5871 5870 5869 5868 5867 5866 5865 5863 5862 5860 5859 5857 5855 5854 5852 5851 5849 5847 5846 5844 5842 5840 5838 5836 5834 5832 5830 5829 5827 5825 5823 5822 5820 5819 5818 5816 5815 5814
5874 5873 5872 5872 5871 5870 5868 5867 5866 5865 5864 5863 5861 5860 5858 5857 5855 5853 5851 5850 5848 5846 5844 5843 5841 5839 5837 5834 5832 5830 5828 5826 5824 5822 5820 5818 5817 5815 5814 5812 5811 5810 5809
5871 5871 5870 5869 5868 5867 5866 5865 5864 5863 5862 5861 5859 5857 5856 5854 5852 5850 5849 5847 5845 5843 5841 5839 5837 5835 5833 5830 5828 5826 5824 5822 5820 5817 5815 5813 5812 5810 5808 5806 5805 5804 5803
5868 5867 5867 5866 5866 5865 5864 5863 5862 5860 5859 5858 5856 5854 5853 5851 5849 5847 5846 5843 5841 5839 5837 5835 5833 5831 5828 5826 5824 5821 5819 5817 5814 5812 5810 5808 5806 5804 5802 5801 5799 5798 5797
5865 5864 5863 5863 5863 5862 5862 5861 5860 5858 5857 5855 5854 5852 5850 5848 5846 5844 5842 5840 5837 5835 5833 5831 5828 5826 5824 5821 5819 5816 5814 5811 5809 5807 5805 5802 5800 5798 5796 5794 5793 5791 5790
5862 5861 5860 5859 5859 5859 5859 5858 5857 5856 5854 5853 5851 5849 5847 5845 5843 5841 5838 5836 5833 5831 5829 5826 5824 5822 5819 5816 5814 5811 5808 5806 5803 5801 5799 5796 5794 5792 5790 5788 5787 5785 5783
5859 5858 5857 5856 5856 5856 5855 5855 5854 5853 5851 5849 5848 5846 5844 5842 5839 5837 5835 5832 5830 5827 5824 5822 5819 5817 5814 5811 5808 5805 5803 5800 5797 5795 5792 5789 5787 5785 5783 5782 5780 5778 5776
5856 5855 5854 5853 5853 5853 5852 5852 5851 5849 5848 5846 5844 5843 5840 5838 5836 5833 5831 5828 5826 5823 5820 5817 5814 5811 5808 5805 5802 5799 5797 5794 5791 5789 5786 5783 5781 5779 5777 5775 5773 5771 5769
5852 5852 5851 5850 5849 5849 5849 5848 5847 5845 5844 5842 5841 5839 5836 5834 5832 5829 5827 5824 5821 5818 5815 5812 5809 5806 5803 5799 5796 5793 5790 5788 5785 5782 5780 5777 5775 5772 5770 5768 5766 5764 5762
5849 5848 5848 5847 5846 5846 5845 5844 5843 5842 5840 5838 5836 5834 5832 5830 5827 5825 5822 5819 5816 5813 5810 5806 5803 5800 5797 5793 5790 5787 5784 5781 5779 5776 5773 5770 5768 5765 5763 5761 5759 5757 5755
5845 5845 5844 5843 5842 5842 5841 5839 5838 5837 5836 5834 5832 5830 5828 5825 5823 5820 5817 5814 5811 5808 5804 5801 5798 5794 5791 5787 5784 5780 5778 5775 5772 5769 5766 5763 5761 5758 5756 5754 5752 5750 5748
5841 5840 5839 5839 5838 5837 5837 5835 5834 5833 5832 5830 5828 5825 5823 5820 5818 5815 5812 5809 5806 5802 5799 5795 5792 5788 5785 5781 5777 5774 5771 5768 5765 5762 5759 5756 5754 5751 5749 5747 5745 5742 5740
5837 5836 5835 5835 5834 5833 5832 5831 5830 5829 5827 5825 5823 5821 5818 5816 5813 5810 5807 5804 5800 5797 5793 5789 5786 5782 5778 5775 5771 5768 5764 5761 5757 5754 5751 5749 5746 5744 5741 5739 5737 5735 5733
5832 5832 5831 5830 5830 5829 5828 5827 5825 5824 5822 5821 5819 5816 5814 5811 5808 5805 5802 5798 5795 5791 5787 5784 5780 5776 5772 5768 5765 5761 5758 5754 5750 5747 5744 5741 5738 5736 5733 5731 5729 5727 5725
5827 5827 5826 5826 5825 5824 5823 5822 5820 5818 5817 5815 5813 5811 5808 5806 5803 5799 5796 5792 5789 5785 5781 5777 5773 5769 5765 5761 5758 5754 5750 5747 5743 5740 5737 5734 5731 5728 5726 5723 5721 5719 5717
5822 5822 5821 5820 5819 5818 5817 5816 5814 5813 5811 5810 5808 5805 5802 5800 5796 5793 5790 5786 5782 5779 5775 5770 5766 5762 5758 5754 5750 5746 5743 5739 5736 5732 5729 5726 5723 5720 5717 5715 5713 5711 5708
5817 5816 5816 5815 5814 5813 5812 5810 5809 5807 5806 5804 5801 5799 5796 5793 5790 5786 5783 5780 5776 5772 5768 5763 5759 5755 5750 5746 5743 5739 5735 5731 5728 5724 5721 5718 5715 5712 5710 5707 5705 5702 5700
5811 5811 5810 5809 5808 5807 5806 5804 5803 5801 5799 5797 5795 5792 5789 5786 5783 5780 5776 5773 5769 5765 5761 5756 5752 5747 5743 5739 5735 5732 5728 5724 5721 5717 5714 5711 5708 5705 5702 5700 5697 5695 5692
5805 5804 5804 5803 5802 5801 5799 5798 5796 5794 5793 5791 5789 5786 5783 5780 5776 5772 5769 5765 5762 5758 5754 5749 5745 5740 5736 5732 5728 5724 5721 5717 5714 5710 5707 5704 5701 5698 5695 5692 5690 5687 5685
5798 5798 5797 5796 5795 5794 5793 5791 5790 5788 5786 5784 5782 5779 5776 5773 5769 5766 5762 5758 5754 5751 5746 5742 5738 5733 5729 5725 5721 5717 5714 5710 5707 5703 5700 5697 5694 5691 5688 5686 5683 5680 5678